Home > Weather > Bergisch Gladbach > Past weeks

Flag for Germany Weather for the Past 2 Weeks in Bergisch Gladbach, North Rhine-Westphalia, Germany

Now
50 °F

Clear.


Feels Like: 46 °F
Forecast: 44 / 51 °F
Wind: 12 mph from Southeast

Location: Koeln / Bonn

Current Time: Feb 7, 2016 at 1:23:48 AM

Latest Report: Feb 7, 2016 at 12:50 AM


Visibility: 10 mi

Pressure: 29.59 "Hg

Humidity: 67%

Dew point: 39 °F

Location of Bergisch GladbachLocation

Historic Weather in Bergisch Gladbach — Graph

°F

Bergisch Gladbach Temperature Yesterday

Maximum temperature yesterday: 54 °F (at 1:20 PM)
Minimum temperature yesterday: 43 °F (at 7:50 AM)
Average temperature yesterday: 48 °F

High & Low Weather Summary for the Past Weeks

 TemperatureHumidityPressure
High57 °F (Jan 25, 2:50 PM)100% (Jan 22, 11:20 PM)30.57 "Hg (Jan 22, 11:20 PM)
Low32 °F (Jan 22, 11:20 PM)55% (Jan 27, 3:20 PM)29.62 "Hg (Feb 6, 11:20 PM)
Average46 °F84%30.14 "Hg
* Reported Jan 22 11:20 PM — Feb 6 11:50 PM, Bergisch Gladbach, Weather by CustomWeather, © 2016

Note: Actual official high and low records may vary slightly from our data, if they occured in-between our weather recording intervals... More about our weather records

Advertising

Bergisch Gladbach Weather History for the Previous 24 Hours

 ConditionsComfort  
Time TempWeatherWind HumidityBarometerVisibility
11:50 PM
Sat, Feb 6
50 °FClear.14 mph67%29.62 "Hg10 mi
11:20 PM48 °FClear.13 mph71%29.62 "Hg10 mi
10:50 PM48 °FClear.12 mph76%29.65 "Hg10 mi
9:50 PM50 °FClear.12 mph67%29.65 "Hg10 mi
9:20 PM50 °FClear.14 mph71%29.68 "Hg10 mi
8:50 PM48 °FClear.10 mph71%29.68 "Hg10 mi
8:20 PM48 °FClear.12 mph71%29.68 "Hg10 mi
7:50 PM48 °FClear.10 mph66%29.71 "Hg10 mi
7:20 PM50 °FClear.8 mph62%29.71 "Hg10 mi
6:50 PM52 °FClear.10 mph62%29.71 "Hg10 mi
6:20 PM48 °FClear.13 mph71%29.74 "Hg10 mi
5:50 PM50 °FClear.12 mph71%29.74 "Hg10 mi
5:20 PM52 °FSunny.10 mph67%29.74 "Hg10 mi
4:50 PM50 °FSunny.9 mph71%29.77 "Hg10 mi
4:20 PM50 °FSunny.10 mph71%29.77 "Hg10 mi
3:50 PM50 °FPartly sunny.9 mph67%29.80 "HgN/A
3:20 PM52 °FPartly sunny.10 mph67%29.83 "HgN/A
2:50 PM52 °FPartly sunny.15 mph62%29.83 "HgN/A
2:20 PM52 °FPartly sunny.15 mph62%29.86 "HgN/A
1:50 PM52 °FPartly sunny.17 mph62%29.86 "HgN/A
1:20 PM54 °FPartly sunny.16 mph63%29.89 "HgN/A
12:50 PM52 °FPartly sunny.17 mph67%29.89 "HgN/A
12:20 PM52 °FPartly sunny.13 mph67%29.89 "HgN/A
11:50 AM52 °FBroken clouds.14 mph72%29.92 "HgN/A
11:20 AM50 °FBroken clouds.15 mph76%29.92 "HgN/A
10:50 AM50 °FBroken clouds.12 mph76%29.92 "HgN/A
10:20 AM48 °FPartly sunny.9 mph82%29.92 "HgN/A
9:50 AM46 °FPartly sunny.10 mph82%29.92 "HgN/A
9:20 AM45 °FPartly sunny.13 mph87%29.92 "HgN/A
8:50 AM45 °FPartly sunny.9 mph87%29.95 "HgN/A
8:20 AM45 °FPartly sunny.8 mph87%29.95 "HgN/A
7:50 AM43 °FPassing clouds.10 mph93%29.95 "HgN/A
7:20 AM45 °FClear.10 mph87%29.95 "Hg10 mi
6:50 AM45 °FClear.10 mph87%29.95 "Hg10 mi
6:20 AM45 °FClear.9 mph87%29.95 "Hg10 mi
5:50 AM45 °FClear.9 mph87%29.98 "Hg10 mi
5:20 AM46 °FClear.8 mph82%29.98 "Hg10 mi
4:50 AM46 °FClear.8 mph82%29.98 "Hg10 mi
4:20 AM46 °FClear.8 mph87%30.01 "Hg10 mi
3:50 AM45 °FClear.8 mph87%30.01 "Hg10 mi
3:20 AM46 °FPassing clouds.9 mph87%30.04 "HgN/A
2:50 AM46 °FPassing clouds.8 mph87%30.04 "HgN/A
2:20 AM46 °FPassing clouds.9 mph87%30.07 "HgN/A
1:20 AM48 °FPassing clouds.9 mph87%30.07 "HgN/A
Weather by CustomWeather, © 2016

See weather overviewHow to use our weather pages